User: anonymous   Login
Location: Caltech
(34.1382°N, 118.1253°W)
Time: 09:30:39
(UTC-08:00)
Language:

Cosmos 1025 Rocket - Orbit

View from above orbital plane
View from above orbital plane
View from above satellite
View from above satellite

Ground track
Ground track

The orbit data is extracted from the following two-line orbital elements,

1 10974U 78067B   17322.77290817 +.00000136 +00000-0 +12358-4 0  9998
2 10974 082.4843 022.8021 0017245 186.1372 173.9636 14.87258718109426
Epoch (UTC): 18 November 2017 18:32:59
Eccentricity: 0.0017245
inclination: 82.4843°
perigee height: 594 km
apogee height: 618 km
right ascension of ascending node: 22.8021°
argument of perigee: 186.1372°
revolutions per day: 14.87258718
mean anomaly at epoch: 173.9636°
orbit number at epoch: 10942

The dashed part of the orbit path shows where the satellite is in the earth's shadow,  

DLR